Location: Wawayanda State Park
(41.1833°N, 74.4333°W)
Time: 04:17:17
(UTC-04:00)

RESURS DK-1 - Visible Passes

Search period start: 28 July 2014 00:00
Search period end: 07 August 2014 00:00
Orbit: 561 x 568 km, 69.9° (Epoch: 28 July)

Date Brightness Start Highest point End Pass type
(mag) Time Alt. Az. Time Alt. Az. Time Alt. Az.
28 Jul 4.7 00:13:59 18° WNW 00:15:10 20° NW 00:18:17 10° N visible
28 Jul 2.6 22:37:11 53° E 22:37:11 53° E 22:40:55 10° NE visible
29 Jul 5.1 00:13:07 11° W 00:15:19 15° NW 00:17:48 10° NNW visible
29 Jul 2.2 22:36:05 59° S 22:36:48 80° ESE 22:40:59 10° NNE visible
30 Jul 5.4 00:14:05 10° WNW 00:15:30 11° NW 00:16:56 10° NNW visible
30 Jul 2.5 22:34:37 27° SW 22:36:48 72° WNW 22:40:59 10° NNE visible
31 Jul 4.2 20:57:05 10° SE 20:59:09 14° ESE 21:01:13 10° ENE visible
31 Jul 3.2 22:32:46 10° SW 22:36:50 50° WNW 22:40:54 10° NNE visible
01 Aug 3.8 20:56:03 10° SSE 20:59:01 19° ESE 21:01:59 10° ENE visible
01 Aug 3.9 22:33:02 10° SW 22:36:53 36° WNW 22:40:46 10° N visible
02 Aug 3.3 20:55:24 10° SSE 20:58:54 27° ESE 21:02:25 10° NE visible
02 Aug 4.5 22:33:25 10° WSW 22:36:59 27° WNW 22:40:33 10° N visible
03 Aug 2.9 20:54:58 10° S 20:58:49 37° ESE 21:02:41 10° NE visible
03 Aug 5.1 22:33:59 10° WSW 22:37:06 20° NW 22:40:14 10° N visible
04 Aug 6.3 05:20:06 10° NE 05:20:54 10° NE 05:21:41 10° ENE visible
04 Aug 2.5 20:54:42 10° S 20:58:46 54° ESE 21:02:50 10° NE visible
04 Aug 5.5 22:34:46 10° W 22:37:15 15° NW 22:39:45 10° NNW visible
05 Aug 5.8 05:18:53 10° NNE 05:21:05 14° NE 05:23:17 10° E visible
05 Aug 2.3 20:54:35 10° SSW 20:58:44 79° ESE 21:02:55 10° NNE visible
05 Aug 5.8 22:35:59 10° WNW 22:37:26 12° NW 22:38:53 10° NNW visible
06 Aug 5.6 05:18:19 10° N 05:21:15 18° NE 05:24:10 10° E visible
06 Aug 2.7 20:54:35 10° SSW 20:58:44 73° WNW 21:02:54 10° NNE visible
